sat.trackr.live / text

‹ back to catalog

EUTELSAT 16A

NORAD 37836 · 2011-057A

PAYLOAD ACTIVE UNKNOWN

§ Identity

Operator
Country
EUTE
Launch date
2011-10-07
Launch site
XICLF
Launch vehicle
Mass (kg)
RCS (m²)
7.66

Purposes: comms

External: N2YO · Heavens-Above · Gunter

§ Orbital elements

Epoch: 2026-09-09T03:51:56.599200Z

Period
1,436.06 min
Inclination
0.0806°
Eccentricity
0.0005557
Mean motion
1.00274296 rev/d
Perigee alt
35,762.5 km
Apogee alt
35,809.3 km
Semi-major
42,164.0 km
B*
0.0000e+0
RAAN
59.8355°
Arg perigee
108.2933°
Mean anomaly
254.0902°
Rev number
817

§ Raw data

EUTELSAT 16A1 37836U 11057A   26252.16107175  .00000083  00000+0  00000+0 0  99952 37836   0.0806  59.8355 0005557 108.2933 254.0902  1.00274296  8175

JSON: /api/v1/satellites/37836 · /tle

For live sub-satellite position, see the globe view (requires WebGL).

§ Visibility from observer

Set your observer location to see the next 7 days of passes ≥ 10°. The values pass through the URL so the page stays shareable.

No JS? Fill the form by hand. The geolocation button needs JavaScript.